Time,TemperatureF,DewpointF,PressureIn,WindDirection,WindDirectionDegrees,WindSpeedMPH,WindSpeedGustMPH,Humidity,HourlyPrecipIn,Conditions,Clouds,dailyrainin,SoftwareType,DateUTC
2013-07-23 00:22:00,62.0,52.0,-100.00,SW,235,2.0,4.0,68,0.00,,,0.00,,2013-07-23 05:22:00,
2013-07-23 00:33:00,62.0,52.0,-100.00,WSW,240,2.0,4.0,69,0.00,,,0.00,,2013-07-23 05:33:00,
2013-07-23 00:52:00,63.0,52.0,-100.00,SW,235,4.0,6.0,68,0.00,,,0.00,,2013-07-23 05:52:00,
2013-07-23 01:01:00,63.0,52.0,-100.00,SW,235,3.0,7.0,68,0.00,,,0.00,,2013-07-23 06:01:00,
2013-07-23 01:11:00,63.0,52.0,-100.00,SW,235,2.0,6.0,68,0.00,,,0.00,,2013-07-23 06:11:00,
2013-07-23 01:22:00,62.0,52.0,-100.00,WSW,245,0.0,4.0,71,0.00,,,0.00,,2013-07-23 06:22:00,
2013-07-23 01:33:00,61.0,54.0,-100.00,West,260,2.0,4.0,74,0.00,,,0.00,,2013-07-23 06:33:00,
2013-07-23 01:52:00,61.0,54.0,-100.00,West,265,2.0,4.0,75,0.00,,,0.00,,2013-07-23 06:52:00,
2013-07-23 02:01:00,61.0,54.0,-100.00,West,265,2.0,4.0,75,0.00,,,0.00,,2013-07-23 07:01:00,
2013-07-23 02:12:00,61.0,54.0,-100.00,West,265,2.0,4.0,75,0.00,,,0.00,,2013-07-23 07:12:00,
2013-07-23 03:01:00,60.0,54.0,-100.00,West,265,1.0,5.0,76,0.00,,,0.00,,2013-07-23 08:01:00,
2013-07-23 03:11:00,60.0,54.0,-100.00,West,270,0.0,5.0,77,0.00,,,0.00,,2013-07-23 08:11:00,
2013-07-23 03:33:00,60.0,52.0,-100.00,West,260,1.0,4.0,75,0.00,,,0.00,,2013-07-23 08:33:00,
2013-07-23 03:52:00,59.0,52.0,-100.00,West,265,0.0,3.0,76,0.00,,,0.00,,2013-07-23 08:52:00,
2013-07-23 04:11:00,59.0,52.0,-100.00,West,270,0.0,6.0,77,0.00,,,0.00,,2013-07-23 09:11:00,
2013-07-23 04:22:00,59.0,52.0,-100.00,West,270,0.0,4.0,77,0.00,,,0.00,,2013-07-23 09:22:00,
2013-07-23 04:42:00,59.0,50.0,-100.00,West,260,3.0,6.0,74,0.00,,,0.00,,2013-07-23 09:42:00,
2013-07-23 05:11:00,58.0,50.0,-100.00,West,260,2.0,4.0,74,0.00,,,0.00,,2013-07-23 10:11:00,
2013-07-23 05:22:00,58.0,50.0,-100.00,West,260,2.0,4.0,74,0.00,,,0.00,,2013-07-23 10:22:00,
2013-07-23 06:22:00,58.0,50.0,-100.00,West,260,1.0,4.0,75,0.00,,,0.00,,2013-07-23 11:22:00,
2013-07-23 08:11:00,63.0,46.0,-100.00,South,185,6.0,12.0,56,0.00,,,0.00,,2013-07-23 13:11:00,
2013-07-23 09:02:00,63.0,46.0,-100.00,South,175,10.0,16.0,53,0.00,,,0.00,,2013-07-23 14:02:00,
2013-07-23 10:11:00,65.0,46.0,-100.00,South,170,6.0,10.0,52,0.00,,,0.00,,2013-07-23 15:11:00,
2013-07-23 11:01:00,67.0,46.0,-100.00,SSE,150,5.0,11.0,47,0.00,,,0.00,,2013-07-23 16:01:00,
2013-07-23 11:12:00,66.0,46.0,-100.00,SSE,150,6.0,8.0,47,0.00,,,0.00,,2013-07-23 16:12:00,
2013-07-23 12:11:00,66.0,45.0,-100.00,SE,145,7.0,10.0,46,0.00,,,0.00,,2013-07-23 17:11:00,
2013-07-23 13:12:00,67.0,43.0,-100.00,SE,125,7.0,11.0,40,0.00,,,0.00,,2013-07-23 18:12:00,
2013-07-23 13:34:00,68.0,43.0,-100.00,ESE,115,6.0,11.0,39,0.00,,,0.00,,2013-07-23 18:34:00,
2013-07-23 15:13:00,67.0,43.0,-100.00,SE,125,7.0,9.0,41,0.00,,,0.00,,2013-07-23 20:13:00,
2013-07-23 16:04:00,68.0,45.0,-100.00,SE,130,7.0,10.0,42,0.00,,,0.00,,2013-07-23 21:04:00,
2013-07-23 16:14:00,68.0,45.0,-100.00,SE,130,7.0,9.0,42,0.00,,,0.00,,2013-07-23 21:14:00,
2013-07-23 17:05:00,68.0,46.0,-100.00,SE,135,6.0,10.0,44,0.00,,,0.00,,2013-07-23 22:05:00,
2013-07-23 17:12:00,69.0,45.0,-100.00,SE,125,5.0,8.0,41,0.00,,,0.00,,2013-07-23 22:12:00,
2013-07-23 17:56:00,68.0,45.0,-100.00,SE,125,5.0,7.0,42,0.00,,,0.00,,2013-07-23 22:56:00,
2013-07-23 18:12:00,67.0,45.0,-100.00,SE,135,6.0,7.0,43,0.00,,,0.00,,2013-07-23 23:12:00,
2013-07-23 18:35:00,68.0,45.0,-100.00,SE,130,4.0,5.0,43,0.00,,,0.00,,2013-07-23 23:35:00,
2013-07-23 19:07:00,67.0,45.0,-100.00,SE,135,3.0,7.0,43,0.00,,,0.00,,2013-07-24 00:07:00,
2013-07-23 19:26:00,68.0,45.0,-100.00,SE,135,1.0,-999.0,43,0.00,,,0.00,,2013-07-24 00:26:00,
2013-07-23 19:58:00,71.0,46.0,-100.00,SE,125,1.0,4.0,40,0.00,,,0.00,,2013-07-24 00:58:00,
2013-07-23 20:04:00,70.0,46.0,-100.00,SE,135,2.0,4.0,43,0.00,,,0.00,,2013-07-24 01:04:00,
2013-07-23 20:14:00,67.0,48.0,-100.00,SSE,155,3.0,4.0,48,0.00,,,0.00,,2013-07-24 01:14:00,
2013-07-23 21:16:00,66.0,50.0,-100.00,South,180,1.0,3.0,55,0.00,,,0.00,,2013-07-24 02:16:00,
2013-07-23 22:13:00,64.0,50.0,-100.00,SSW,205,1.0,2.0,61,0.00,,,0.00,,2013-07-24 03:13:00,
2013-07-23 23:01:00,64.0,50.0,-100.00,SSW,205,0.0,2.0,60,0.00,,,0.00,,2013-07-24 04:01:00,
2013-07-23 23:11:00,63.0,50.0,-100.00,SSW,205,1.0,2.0,61,0.00,,,0.00,,2013-07-24 04:11:00,